Regional Weather Roundup
Issued by NWS

Home | Current Version | Previous Version | Graphics & Text | Print | Product List | Glossary On
Versions: 1 2 3 4 5 6 7 8 9 10 11 12 13 14 15 16 17 18 19 20 21 22 23 24 25 26 27
000
ASUS45 KTFX 190410
RWRMT
MONTANA REGIONAL WEATHER ROUNDUP
NATIONAL WEATHER SERVICE GREAT FALLS MT
1000 PM MDT FRI AUG 18 2017

NOTE: "FAIR" INDICATES FEW OR NO CLOUDS BELOW 12000 FEET WITH NO
SIGNIFICANT WEATHER AND/OR OBSTRUCTIONS TO VISIBILITY.

MTZ001>007-043-190500-
WEST OF THE DIVIDE

CITY           SKY/WX    TMP DP  RH WIND       PRES   REMARKS
KALISPELL        N/A     72  36  26 W6        29.92R
MISSOULA         N/A     76  33  21 NW3       29.97S
BUTTE            N/A     64  24  21 S7        30.11R
MULLAN PASS      N/A     58  30  34 VRB6      30.15S
ANACONDA         N/A     73  21  14 SW9       30.07R
DEER LODGE       N/A     70  30  23 CALM      30.06R
EUREKA           N/A     73  39  29 MISG      29.89S
HAMILTON         N/A     75  37  25 CALM      30.00S
LIBBY            N/A     70  37  30 CALM      29.90S
PLAINS           N/A     77  36  22 MISG      29.96R
RONAN            N/A     77  39  25 SW5       30.02R
$$

MTZ008-052>055-190500-
SOUTHWEST MONTANA

CITY           SKY/WX    TMP DP  RH WIND       PRES   REMARKS
BOZEMAN          N/A     63  42  46 SE9       30.00R
DILLON           N/A     71  26  18 S9        30.06R
W YELLOWSTONE    N/A     63  32  31 S3        30.22R
ENNIS            N/A     72  36  26 SE13      30.13R
THREE FORKS      N/A     65  35  32 CALM      29.99R
TWIN BRIDGES     N/A     70  28  21 CALM      30.03R
$$

MTZ009-010-012-014-046-048-049-054-190500-
EAST SLOPES AND CENTRAL MONTANA

CITY           SKY/WX    TMP DP  RH WIND       PRES   REMARKS
CUT BANK         N/A     75  31  19 W22G32    29.87S
GREAT FALLS    CLOUDY    75  29  18 SW14      29.89S HAZE
MALMSTROM AFB  CLOUDY    78  29  16 SW16      29.89R
HELENA         CLOUDY    77  31  18 W3        29.97R HAZE
AUGUSTA        MOCLDY    70  32  24 W6        29.95S
CHOTEAU          N/A     77  30  18 SW7       29.93R
FAIRFIELD      MOCLDY    72  33  24 W8        29.90S
POWER          MOCLDY    72  28  19 SW13      29.90R
RAYNESFORD     MOCLDY    78  24  13 SW14      29.93R
ULM              N/A     76  29  17 SW13      29.91R
$$

MTZ011-013-016-021-045-047-050-051-190500-
NORTH CENTRAL MONTANA

CITY           SKY/WX    TMP DP  RH WIND       PRES   REMARKS
HAVRE            N/A     67  34  29 SW8       29.78R
LEWISTOWN        N/A     64  33  31 SE3       29.94R
N BAR RANCH    MOCLDY    66  28  24 W6G12     29.98S
CHINOOK          N/A     72  43  35 NW7       29.76S
DENTON           N/A     70  27  19 W15       29.86R
GEYSER         MOCLDY    69  23  17 SW14G20   29.91S
GRASS RANGE      N/A     65  30  26 W5        29.89R
JUDITH GAP       N/A     63  27  25 NW6       29.98R
WINIFRED       MOCLDY    76  29  17 SE15      29.88S
$$

MTZ017>020-022>027-061-062-190500-
NORTHEAST MONTANA

CITY           SKY/WX    TMP DP  RH WIND       PRES   REMARKS
GLASGOW          N/A     73  35  25 E14       29.79S
JORDAN           N/A     67  33  28 CALM      29.82S
SIDNEY           N/A     70  51  51 N5        29.84F
WOLF POINT       N/A     71  41  33 NE8       29.81R
MALTA          CLEAR     66  45  45 CALM      29.77F
PLENTYWOOD       N/A     70  46  43 CALM      29.83S
POPLAR           N/A     72  50  46 SE7       29.82S
$$

MTZ028>42-056>058-190500-
SOUTHCENTRAL AND SOUTHEAST MONTANA

CITY           SKY/WX    TMP DP  RH WIND       PRES   REMARKS
BAKER            N/A     64  43  46 SE6       29.91S
BILLINGS         N/A     74  20  13 NW5       29.91S
LIVINGSTON       N/A     65  31  28 CALM      29.99S
MILES CITY       N/A     75  35  23 S8        29.84S
BIG TIMBER     CLEAR     72  25  17 S12       30.00S
HARLOWTON        N/A     70  27  20 MISG      29.96S
LAUREL           N/A     74  27  17 W3        29.92S
$$

REGIONAL REPORTS...DAKOTAS

CITY           SKY/WX    TMP DP  RH WIND       PRES   REMARKS
WILLISTON        N/A     68  51  54 S3        29.85S
MINOT            N/A     68  53  58 S6        29.86S
DICKINSON        N/A     62  53  72 SE9       29.90S
BEACH            N/A     66  46  48 SE9       29.92S
CROSBY           N/A     63  50  63 S7        29.84F
TIOGA            N/A     64  52  63 S12       29.88F
WATFORD CITY     N/A     66  52  59 SE12      29.86F
BISMARCK         N/A     62  57  83 SE3       29.91F
GRAND FORKS      N/A     64  59  83 SW5       29.85R
FARGO            N/A     64  60  87 SW6       29.88S
BUFFALO SD       N/A     70  45  40 SE14      29.88R
RAPID CITY       N/A     65  46  50 CALM      29.99R
$$

REGIONAL REPORTS...WYOMING/IDAHO/WASHINGTON

CITY           SKY/WX    TMP DP  RH WIND       PRES   REMARKS
GILLETTE         N/A     64  40  41 S10       30.01S
SHERIDAN         N/A     63  45  51 S5        29.97S
BUFFALO WY       N/A     69  35  28 W9        30.06S
CODY             N/A     73  34  23 SE7       30.06S
YELLOWSTONE LA   N/A     48  38  68 CALM      30.33R
IDAHO FALLS      N/A     73  32  22 S10       30.09R
SALMON         CLOUDY    72  36  26 SE3       30.01R
BOISE            N/A     77  30  17 CALM      29.97S
SPOKANE          N/A     75  41  29 SW12      29.95R
$$

REGIONAL REPORTS...ALBERTA

CITY           SKY/WX    TMP DP  RH WIND       PRES   REMARKS
EDMONTON       RAIN      52  50  93 NW13G22   29.88R
CALGARY        PTCLDY    72  34  25 NW13      29.77R
LETHBRIDGE     PTCLDY    75  37  25 W18G25    29.77R
MEDICINE HAT   CLEAR     72  45  37 S9        29.69S
$$

REGIONAL REPORTS...SASKATCHEWAN

CITY           SKY/WX    TMP DP  RH WIND       PRES   REMARKS
SWIFT CURRENT  CLEAR     68  43  40 S12       29.70F
REGINA         PTCLDY    70  41  35 SE10      29.75F
SASKATOON      MOCLDY    68  50  52 E10       29.71F
$$




USA.gov is the U.S. government's official web portal to all federal, state and local government web resources and services.